Location: Newark
(41.5333°N, 14.5500°E)
Time: 05:51:27
(UTC+00:00)

Envisat - Pass Details

Date: 26 January 2020
Orbit: 764 x 766 km, 98.1° (Epoch: 27 February)

Event Time Altitude Azimuth Distance (km) Brightness Sun altitude
Rises 16:49:13 0° 166° (SSE) 3,218 6.3 -7.8°
Reaches altitude 10° 16:51:31 10° 166° (SSE) 2,296 5.5 -8.2°
Maximum altitude 16:56:35 89° 258° (WSW) 772 3.0 -9.1°
Drops below altitude 10° 17:01:42 10° 347° (NNW) 2,312 5.5 -10.0°
Sets 17:04:01 0° 348° (NNW) 3,243 6.2 -10.4°
